Location: Palo Alto
(37.4420°N, 122.1420°W)
Time: 19:19:47
(UTC-07:00)

N. Korean satellite - Pass Details

Date: 18 August 2020
Orbit: 455 x 503 km, 97.2° (Epoch: 22 September)

Event Time Altitude Azimuth Distance (km) Brightness Sun altitude
Rises 05:33:21 0° 39° (NE) 2,558 11.5 -10.9°
Reaches altitude 10° 05:37:16 10° 82° (E) 1,684 10.7 -10.2°
Maximum altitude 05:37:52 10° 92° (E) 1,665 10.4 -10.1°
Drops below altitude 10° 05:38:28 10° 101° (ESE) 1,686 10.2 -10.0°
Sets 05:42:24 0° 145° (SE) 2,572 10.4 -9.3°
